Weather Service Report


345 
ASUS43 KBIS 281820
RWRBIS

NWR BROADCAST TEXT
NATIONAL WEATHER SERVICE BISMARCK ND
100 PM CDT THU AUG 28 2014

NOTE: "FAIR" INDICATES FEW OR NO CLOUDS BELOW 12,000 FEET WITH NO
SIGNIFICANT WEATHER AND/OR OBSTRUCTIONS TO VISIBILITY.

  
CITY           SKY/WX    TMP DP  RH WIND       PRES   REMARKS
WILLISTON      MOSUNNY   83  59  44 S8        29.87F                  
MINOT          MOSUNNY   80  57  45 S10       29.86F                  
MINOT AFB      SUNNY     82  58  43 SW9       29.85F                  
BISMARCK       CLOUDY    71  66  84 S6        29.93S                  
DICKINSON      SUNNY     81  54  39 SW12      29.91F                  
GARRISON         N/A     74  64  71 S8        29.90F                  
HETTINGER ARPT MOSUNNY   76  58  53 S5        29.95F                  
JAMESTOWN      CLOUDY    70  66  87 S10       29.93F                  
BEACH            N/A     82  50  32 CALM      29.93F                  
CARRINGTON     MOCLDY    73  73 100 SE12      29.92F                  
CROSBY         FAIR      84  57  39 S10       29.84F                  
HARVEY         MOCLDY    77  66  69 S10       29.90F                  
HAZEN          FAIR      81  57  44 S7        29.89F                  
LINTON         CLOUDY    68  68 100 S6        29.93F                  
MANDAN         CLOUDY    70  66  88 SE6       29.93F                  
OAKES            N/A     66  66 100 E7        29.94F                  
RUGBY          FAIR      75  66  73 S10       29.88F                  
STANLEY        FAIR      81  64  57 SW5       29.87F                  
TIOGA          FAIR      84  55  37 S7        29.90F                  
WATFORD CITY   FAIR      84  52  32 CALM      29.86F                  
$$
  
CITY           SKY/WX    TMP DP  RH WIND       PRES   REMARKS
GRAND FORKS    CLOUDY    75  65  70 S15       29.92F                  
GRAND FORKS AF PTSUNNY   75  70  83 S10       29.93F                  
DEVILS LAKE    MOSUNNY   73  64  73 SW8       29.89F                  
FARGO          CLOUDY    70  61  73 SE14      29.95F                  
CANDO          FAIR      75  66  73 S14       29.90F                  
CAVALIER       MOCLDY    73  66  78 S9        29.90F                  
GRAFTON        MOCLDY    77  66  69 S14       29.90F                  
GWINNER        CLOUDY    70  68  94 SE7       29.96S                  
LANGDON        MOCLDY    77  64  65 S15       29.90F                  
ROLLA            N/A     75  64  69 SW16G22   29.89F                  
WALHALLA       FAIR      77  72  83 S10       29.88F                  
$$
  
CITY           SKY/WX    TMP DP  RH WIND       PRES   REMARKS
ABERDEEN       CLOUDY    69  67  93 E9        29.92F                  
MOBRIDGE       LGT RAIN  68  67  96 CALM      29.91F                  
BUFFALO          N/A     81  58  45 S5        29.90F                  
RAPID CITY     CLOUDY    73  59  61 N5        30.00F                  
GLASGOW        SUNNY     82  55  39 NW8       29.88F                  
SIDNEY         SUNNY     81  63  54 S7        29.88F                  
WOLF POINT     SUNNY     82  57  42 SW9       29.86F                  
GLENDIVE       SUNNY     81  63  54 SE8       29.91F                  
MILES CITY     SUNNY     82  53  36 SW6       29.94F                  
BAKER          SUNNY     81  54  39 CALM      29.96F                  
$$
  
CITY           SKY/WX    TMP DP  RH WIND       PRES   REMARKS
BILLINGS       MOSUNNY   80  49  33 SW12      30.02F                  
GREAT FALLS    MOSUNNY   82  44  26 SW17      29.99F                  
REGINA         PTSUNNY   75  63  64 S6        29.80F                  
ESTEVAN        MOSUNNY   82  61  47 SW9       29.84F                  
$$



346 
ASUS43 KBIS 281820
RWRND 

NORTH DAKOTA REGIONAL WEATHER ROUNDUP
NATIONAL WEATHER SERVICE BISMARCK ND
100 PM CDT THU AUG 28 2014

NOTE: "FAIR" INDICATES FEW OR NO CLOUDS BELOW 12,000 FEET WITH NO
SIGNIFICANT WEATHER AND/OR OBSTRUCTIONS TO VISIBILITY.


NDZ001>003-009>011-017-281900-
NORTHWEST NORTH DAKOTA
  
CITY           SKY/WX    TMP DP  RH WIND       PRES   REMARKS
WILLISTON      MOSUNNY   83  59  44 S8        29.87F                  
6HR MIN TEMP:  55; 6HR MAX TEMP:  84;                                

MINOT          MOSUNNY   80  57  45 S10       29.86F                  
MINOT AFB      SUNNY     82  58  43 SW9       29.85F                  
$$
 
NDZ018>021-031>035-040>046-281900-
SOUTHWEST NORTH DAKOTA
  
CITY           SKY/WX    TMP DP  RH WIND       PRES   REMARKS
BISMARCK       CLOUDY    71  66  84 S6        29.93S                  
6HR MIN TEMP:  61; 6HR MAX TEMP:  72;                                

DICKINSON      SUNNY     81  54  39 SW12      29.91F                  
GARRISON         N/A     74  64  71 S8        29.90F                  
6HR MIN TEMP:  61; 6HR MAX TEMP:  74;                                

HETTINGER ARPT MOSUNNY   76  58  53 S5        29.95F                  
$$
 
NDZ004>008-012>016-024-026-027-054-281900-
NORTHEAST NORTH DAKOTA
  
CITY           SKY/WX    TMP DP  RH WIND       PRES   REMARKS
GRAND FORKS    CLOUDY    75  65  70 S15       29.92F                  
GRND FRKS AFB  PTSUNNY   75  70  83 S10       29.93F                  
DEVILS LAKE    MOSUNNY   73  64  73 SW8       29.89F                  
$$
 
NDZ022-023-025-028>030-036>039-047>053-281900-
SOUTHEAST NORTH DAKOTA
  
CITY           SKY/WX    TMP DP  RH WIND       PRES   REMARKS
FARGO          CLOUDY    70  61  73 SE14      29.95F                  
6HR MIN TEMP:  65; 6HR MAX TEMP:  72;                                

JAMESTOWN      CLOUDY    70  66  87 S10       29.93F                  
$$ 


Return to Home page


Western Regional Climate Center, wrcc@dri.edu